Tracking 19125 objects as of 19-Apr-2018
HD Live streaming from Space Station
objects crossing your sky now

TYVAK 53B

Track TYVAK 53B now!
10-day predictions


NORAD ID: 42795
Int'l Code: 2017-036AG
Perigee: 501.1 km
Apogee: 512.8 km
Inclination: 97.4 °
Period: 94.6 minutes
Semi major axis: 6877 km
RCS: Unknown
Launch date: June 23, 2017
Source: United States (US)
Launch site: SRIHARIKOTA (SRI)
aabbcc
Your satellite tracking list
Your tracking list is empty




NASA's NSSDC Master Catalog

Two Line Element Set (TLE):
1 42795U 17036AG  18108.89619498 +.00001654 +00000-0 +75467-4 0  9995
2 42795 097.3893 169.3129 0008484 079.6007 280.6185 15.21991847045503
Source of the keplerian elements: AFSPC